Palma de Mallorca, Spain

4:15 AM CET on December 09, 2016 (GMT +0100)
Palma De Mallorca

Weather History for LEPA - April, 2012

Change the Weather History Date:

Sunday, April 15, 2012

  Actual Average Record
Temperature  
Mean Temperature 46 °F -  
Max Temperature 57 °F 70 °F 80 °F (2013)
Min Temperature 36 °F 50 °F 36 °F (2012)
Degree Days  
Heating Degree Days 18    
Moisture  
Dew Point 47 °F    
Average Humidity 82    
Maximum Humidity 100    
Minimum Humidity 64    
Precipitation  
Precipitation 0.31 in 0.05 in - ()
Sea Level Pressure  
Sea Level Pressure 29.64 in    
Wind  
Wind Speed 4 mph ()    
Max Wind Speed 13 mph    
Max Gust Speed 23 mph    
Visibility 5.9 miles    
Events Rain , Thunderstorm    
Averages and records for this station are not official NWS values.
T = Trace of Precipitation, MM = Missing Value Source: Averaged Metar Reports

Daily Weather History Graph

Daily Weather History Graph

Search for Another Location

Airport or City:

Trip Planner

Search our weather history database for the weather conditions in past years. The results will help you decide how hot, cold, wet, or windy it might be!

Date:

Astronomy

Apr. 15, 2012 Rise Set
Actual Time 7:11 AM CEST 8:27 PM CEST
Civil Twilight 6:43 AM CEST 8:55 PM CEST
Nautical Twilight 6:10 AM CEST 9:28 PM CEST
Astronomical Twilight 5:35 AM CEST 10:03 PM CEST
Moon 3:59 AM CEST (4/15) 3:07 PM CEST (4/15)
Length of Visible Light 14h 11m
Length of Day
13h 15m
Waning Crescent, 30% of the Moon is Illuminated
Apr 15
Waning Crescent
Apr 21
New
Apr 29
First Quarter
May 6
Full
May 12
Last Quarter

Hourly Weather History & Observations

Time (CEST) Temp. Dew Point Humidity Pressure Visibility Wind Dir Wind Speed Gust Speed Precip Events Conditions
12:00 AM 53.6 °F 46.4 °F 77% 29.53 in 6.2 mi Calm Calm - N/A   Partly Cloudy
12:30 AM 55.4 °F 46.4 °F 72% 29.53 in 6.2 mi Variable 2.3 mph - N/A   Partly Cloudy
1:00 AM 55.4 °F 46.4 °F 72% 29.53 in 6.2 mi NNW 4.6 mph - N/A   Partly Cloudy
1:30 AM 57.2 °F 48.2 °F 72% 29.53 in 6.2 mi NNW 5.8 mph 17.3 mph N/A   Scattered Clouds
2:00 AM 55.4 °F 48.2 °F 77% 29.53 in 6.2 mi NNW 3.5 mph - N/A   Scattered Clouds
2:30 AM 55.4 °F 48.2 °F 77% 29.53 in 6.2 mi NNW 6.9 mph - N/A   Scattered Clouds
3:00 AM 51.8 °F 46.4 °F 82% 29.53 in 6.2 mi NNW 3.5 mph - N/A   Scattered Clouds
3:30 AM 51.8 °F 46.4 °F 82% 29.56 in 6.2 mi Calm Calm - N/A   Scattered Clouds
4:00 AM 51.8 °F 44.6 °F 76% 29.56 in 6.2 mi Calm Calm - N/A   Scattered Clouds
4:30 AM 53.6 °F 46.4 °F 77% 29.56 in 6.2 mi Calm Calm - N/A   Mostly Cloudy
4:45 AM 53.6 °F 48.2 °F 82% 29.56 in 6.2 mi Variable 1.2 mph - N/A Rain Rain
5:00 AM 51.8 °F 48.2 °F 88% 29.56 in 6.2 mi Calm Calm - N/A   Mostly Cloudy
5:30 AM 51.8 °F 46.4 °F 82% 29.56 in 6.2 mi NNE 1.2 mph - N/A   Scattered Clouds
5:43 AM 51.8 °F 48.2 °F 88% 29.56 in 5.0 mi North 6.9 mph - N/A Rain Rain
6:00 AM 51.8 °F 48.2 °F 88% 29.59 in 5.0 mi NNE 9.2 mph - N/A Rain Light Rain
6:30 AM 50.0 °F 48.2 °F 94% 29.59 in 6.2 mi ENE 3.5 mph - N/A Rain Light Rain
7:00 AM 50.0 °F 48.2 °F 94% 29.59 in 6.2 mi NNE 4.6 mph - N/A   Mostly Cloudy
7:30 AM 50.0 °F 48.2 °F 94% 29.59 in 6.2 mi NNE 2.3 mph - N/A   Scattered Clouds
8:00 AM 50 °F 47 °F 87% 29.61 in 9 mi NE 2.3 mph - -   Partly Cloudy
8:00 AM 50.0 °F 48.2 °F 94% 29.59 in 6.2 mi Variable 1.2 mph - N/A   Scattered Clouds
8:30 AM 51.8 °F 48.2 °F 88% 29.62 in 6.2 mi Calm Calm - N/A   Scattered Clouds
9:00 AM 53.6 °F 50.0 °F 88% 29.62 in 6.2 mi Calm Calm - N/A   Scattered Clouds
9:30 AM 55.4 °F 48.2 °F 77% 29.62 in 6.2 mi Variable 1.2 mph - N/A   Scattered Clouds
9:49 AM 57.2 °F 48.2 °F 72% 29.62 in 6.2 mi Variable 2.3 mph - N/A   Scattered Clouds
10:00 AM 57.2 °F 48.2 °F 72% 29.62 in 6.2 mi Variable 1.2 mph - N/A Rain Light Rain
10:30 AM 55.4 °F 50.0 °F 82% 29.62 in 6.2 mi West 5.8 mph - N/A   Scattered Clouds
11:00 AM 53.6 °F 48.2 °F 82% 29.65 in 6.2 mi West 5.8 mph - N/A   Scattered Clouds
11:30 AM 53.6 °F 46.4 °F 77% 29.65 in 6.2 mi WNW 8.1 mph - N/A Rain Light Rain
12:00 PM 51.8 °F 46.4 °F 82% 29.65 in 5.6 mi NNE 12.7 mph - N/A Rain , Thunderstorm Rain
12:30 PM 50.0 °F 46.4 °F 87% 29.68 in 4.3 mi NNW 9.2 mph 23.0 mph N/A Rain Rain
1:00 PM 48.2 °F 46.4 °F 93% 29.68 in 4.3 mi NNW 6.9 mph - N/A Rain Rain
1:30 PM 48.2 °F 46.4 °F 93% 29.68 in 2.5 mi North 9.2 mph - N/A Rain Rain
2:00 PM 36 °F 34 °F 91% 29.70 in 3 mi NNE 2.3 mph - - Rain Rain
2:00 PM 48.2 °F 46.4 °F 93% 29.68 in 3.1 mi Variable 1.2 mph - N/A Rain Rain
2:30 PM 48.2 °F 48.2 °F 100% 29.68 in 4.3 mi East 3.5 mph - N/A Rain Light Rain
3:00 PM 50.0 °F 48.2 °F 94% 29.71 in 4.3 mi Calm Calm - N/A   Scattered Clouds
3:30 PM 50.0 °F 48.2 °F 94% 29.68 in 6.2 mi North 1.2 mph - N/A   Scattered Clouds
4:00 PM 53.6 °F 48.2 °F 82% 29.68 in 6.2 mi SW 1.2 mph - N/A   Partly Cloudy
4:30 PM 53.6 °F 46.4 °F 77% 29.68 in 6.2 mi Variable 2.3 mph - N/A   Partly Cloudy
5:00 PM 51.8 °F 46.4 °F 82% 29.68 in 6.2 mi SW 6.9 mph - N/A   Partly Cloudy
5:30 PM 53.6 °F 46.4 °F 77% 29.71 in 6.2 mi WSW 5.8 mph - N/A   Partly Cloudy
6:00 PM 53.6 °F 48.2 °F 82% 29.71 in 6.2 mi SW 3.5 mph - N/A   Partly Cloudy
6:30 PM 55.4 °F 46.4 °F 72% 29.71 in 6.2 mi WSW 9.2 mph - N/A   Partly Cloudy
7:00 PM 55.4 °F 48.2 °F 77% 29.71 in 6.2 mi SW 10.4 mph - N/A   Partly Cloudy
7:30 PM 55.4 °F 48.2 °F 77% 29.71 in 6.2 mi WSW 10.4 mph - N/A   Partly Cloudy
8:00 PM 55 °F 46 °F 64% 29.73 in 22 mi WSW 10.4 mph - -   Scattered Clouds
8:00 PM 55.4 °F 46.4 °F 72% 29.71 in 6.2 mi SW 6.9 mph - N/A   Partly Cloudy
8:30 PM 53.6 °F 46.4 °F 77% 29.71 in 6.2 mi SW 5.8 mph - N/A   Partly Cloudy
9:00 PM 53.6 °F 46.4 °F 77% 29.71 in 6.2 mi Variable 2.3 mph - N/A   Partly Cloudy
9:30 PM 51.8 °F 46.4 °F 82% 29.74 in 6.2 mi WSW 5.8 mph - N/A   Partly Cloudy
10:00 PM 51.8 °F 46.4 °F 82% 29.77 in 6.2 mi WSW 9.2 mph - N/A   Partly Cloudy
10:30 PM 53.6 °F 48.2 °F 82% 29.77 in 6.2 mi West 6.9 mph - N/A   Scattered Clouds
11:00 PM 53.6 °F 42.8 °F 67% 29.77 in 6.2 mi WSW 10.4 mph - N/A   Scattered Clouds
11:30 PM 51.8 °F 44.6 °F 76% 29.77 in 6.2 mi SW 8.1 mph - N/A   Scattered Clouds